{"data":{"norad_id":48009,"epoch":"2026-09-20T04:33:24.831072Z","epoch_age_seconds":56314,"freshness":"FRESH","line1":"1 48009U 21024AJ  26263.18987073  .00034559  00000+0  80107-3 0  9996","line2":"2 48009  53.1580 121.8215 0001488 169.7103 190.3934 15.42120601304731","mean_motion":15.42120601,"eccentricity":0.0001488,"inclination_deg":53.158,"raan_deg":121.8215,"arg_perigee_deg":169.7103,"mean_anomaly_deg":190.3934,"bstar":0.00080107,"rev_number":30473,"period_min":93.377910849918,"perigee_km":438.83726114053,"apogee_km":440.86629460083,"semimajor_km":6817.9887778707,"source":"CELESTRAK","updated_at":"2026-09-20T09:00:38.759751Z"}}